Observations for Trim Patrick St
| Time | AQI | Temp °C | Hum % | Pres Pa | CO μg/m³ | H₂S μg/m³ | NO μg/m³ | NO₂ μg/m³ | O₃ μg/m³ | SO₂ μg/m³ | PM1 μg/m³ | PM2.5 μg/m³ | PM10 μg/m³ |
|---|---|---|---|---|---|---|---|---|---|---|---|---|---|
| Sunday 9 August 2026 | |||||||||||||
| 05:53 | 2 | 18.3 | 70 | 99,608 | 0.06 | 4.77 | 1.63 | 25.02 | 49.85 | 0.57 | 6.29 | 10.19 | 11.21 |
| 05:52 | 2 | 18.3 | 70 | 97,797 | 0.05 | 3.7 | 1.69 | 13.9 | 42.94 | 0.81 | 6.29 | 10.9 | 12 |
| 05:51 | 2 | 18.3 | 70 | 96,354 | 0.05 | 5.06 | 1.72 | 15.73 | 36.36 | 0.67 | 6.29 | 10.18 | 11.2 |
| 05:50 | 2 | 18.3 | 70 | 94,995 | 0.07 | 6.53 | 1.63 | 27.86 | 54.44 | 1.21 | 4.57 | 8.74 | 9.62 |
| 05:49 | 2 | 18.3 | 70 | 93,601 | 0.06 | 4.51 | 1.92 | 22.51 | 38.64 | 0.82 | 6.29 | 10.93 | 12.02 |
| 05:48 | 2 | 18.3 | 70 | 92,405 | 0.06 | 4.56 | 1.96 | 20.28 | 46.07 | 0.62 | 5.43 | 10.94 | 12.04 |
| 05:47 | 2 | 18.3 | 69 | 91,525 | 0.06 | 2.89 | 2.1 | 14.95 | 38.37 | 0.75 | 5.43 | 9.52 | 10.48 |
| 05:46 | 2 | 18.3 | 69 | 90,708 | 0.06 | 3.1 | 2.07 | 22.12 | 38.31 | 0.59 | 5.43 | 9.52 | 10.48 |
| 05:45 | 2 | 18.3 | 70 | 89,966 | 0.06 | 4.14 | 2.03 | 14.16 | 38.45 | 1.03 | 4.57 | 8.79 | 9.67 |
| 05:44 | 2 | 18.4 | 70 | 89,414 | 0.06 | 4.27 | 1.97 | 26.93 | 39.43 | 0.3 | 5.43 | 9.51 | 10.46 |
| 05:43 | 2 | 18.4 | 70 | 88,548 | 0.06 | 2.75 | 1.95 | 13.6 | 39.08 | 0.98 | 5.43 | 9.52 | 10.47 |
| 05:42 | 2 | 18.4 | 70 | 88,067 | 0.04 | 3.2 | 1.98 | 14.26 | 45.09 | 0.87 | 4.57 | 8.79 | 9.67 |
| 05:41 | 2 | 18.4 | 69 | 87,400 | 0.06 | 3.59 | 2.01 | 18.21 | 41.57 | 0.96 | 6.29 | 10.26 | 11.29 |
| 05:40 | 2 | 18.4 | 69 | 86,838 | 0.06 | 3.12 | 2.14 | 15.19 | 39.22 | 0.6 | 4.57 | 9.55 | 10.51 |
| 05:39 | 2 | 18.4 | 69 | 86,468 | 0.07 | 4.51 | 2.04 | 19.36 | 41.91 | 0.55 | 6.29 | 9.52 | 10.48 |
| 05:37 | 2 | 18.4 | 69 | 85,593 | 0.06 | 2.39 | 2.01 | 16.6 | 34.84 | 0.49 | 6.29 | 10.25 | 11.28 |
| 05:36 | 2 | 18.4 | 69 | 85,317 | 0.06 | 3.17 | 2.04 | 13.62 | 50.45 | 1.23 | 5.43 | 10.25 | 11.27 |
| 05:35 | 2 | 18.4 | 69 | 85,136 | 0.06 | 2.1 | 1.97 | 12.88 | 36.33 | 0.87 | 5.43 | 9.53 | 10.48 |
| 05:34 | 2 | 18.4 | 69 | 84,830 | 0.06 | 2.18 | 1.95 | 24.1 | 37.79 | 0 | 6.29 | 11.01 | 12.11 |
| 05:33 | 2 | 18.4 | 69 | 84,562 | 0.06 | 2.28 | 1.95 | 12.56 | 44.03 | 0.9 | 4.57 | 9.53 | 10.48 |